Location: Bremen
(53.0793°N, 8.8017°E)
Time: 10:52:16
(UTC+02:00)

Transit 2A Rocket - Pass Details

Date: 27 June 2024
Orbit: 582 x 910 km, 66.7° (Epoch: 19 July)

Event Time Altitude Azimuth Distance (km) Brightness Sun altitude
Rises 22:49:55 0° 261° (W) 3,253 8.6 -6.3°
Reaches altitude 10° 22:52:31 10° 272° (W) 2,381 8.1 -6.5°
Maximum altitude 22:57:24 31° 334° (NNW) 1,448 7.4 -6.9°
Drops below altitude 10° 23:02:37 10° 36° (NE) 2,551 8.0 -7.4°
Sets 23:05:30 0° 46° (NE) 3,522 8.6 -7.6°
